Tracking 27419 objects as of 9-Jun-2023
HD Live streaming from Space Station
objects crossing your sky now

DELTA 1 DEB

Track DELTA 1 DEB now!
10-day predictions


NORAD ID: 9701
Int'l Code: 1973-086FZ
Perigee: 1,169.0 km
Apogee: 1,244.8 km
Inclination: 102.6 °
Period: 109.4 minutes
Semi major axis: 7577 km
RCS: 0.0221 m2 (small)
Launch date: November 6, 1973
Source: United States (US)
Launch site: AIR FORCE WESTERN TEST RANGE (AFWTR)

Note: This is SATELLITE DEBRIS
Your satellite tracking list
Your tracking list is empty




NASA's NSSDC Master Catalog

Two Line Element Set (TLE):
1  9701U 73086FZ  23159.96397348  .00004587  00000-0  12147-1 0  9990
2  9701 102.6255 157.5965 0050059 123.9804 294.6158 13.16073725305899
Source of the keplerian elements: AFSPC